Regional Weather Roundup
Issued by NWS Glasgow, MT

Home | Current Version | Previous Version | Text Only | Print | Product List | Glossary On
Versions: 1 2 3 4 5 6 7 8 9 10 11 12 13 14 15 16 17 18 19 20 21 22 23 24 25 26 27 28 29 30 31 32 33 34 35 36 37 38 39 40 41 42 43 44 45 46 47 48 49 50
000
ASUS45 KGGW 070115
RWRGGW
HOURLY WEATHER ROUNDUP FOR NORTHEAST MONTANA
NATIONAL WEATHER SERVICE GLASGOW MONTANA
700 PM MDT WED MAY 06 2015

NOTE: "FAIR" INDICATES FEW OR NO CLOUDS BELOW 12,000 FEET WITH NO
SIGNIFICANT WEATHER AND/OR OBSTRUCTIONS TO VISISBILITY.

NORTHEAST MONTANA


CITY           SKY/WX    TMP DP  RH WIND       PRES   REMARKS
GLASGOW        PTSUNNY   57  34  41 NW22G30   29.82S
WOLF POINT     CLOUDY    59  39  47 N21       29.80R
JORDAN           N/A     58  35  42 N16       29.83S
WINNETT          N/A     56  32  40 NW16        N/A
SIDNEY         CLOUDY    52  46  82 NW13      29.76R
GLENDIVE       CLOUDY    52  46  82 N13G18    29.78R
MALTA            N/A     61  34  36 NW12G21     N/A
SCOBEY           N/A     56  34  43 NW18G26   29.79S

FORT PECK REPORTS


CITY           SKY/WX    TMP DP  RH WIND       PRES   REMARKS
FORT PECK        N/A     58  38  47 NW21G29     N/A
THE PINES        N/A     57  35  43 N12G21      N/A

SOUTHEAST MONTANA


CITY           SKY/WX    TMP DP  RH WIND       PRES   REMARKS
BILLINGS       CLOUDY    54  32  43 N10       29.87S
MILES CITY     CLOUDY    56  43  61 N14       29.80S
BAKER          CLOUDY    49  47  93 NW20G33   29.76R
LIVINGSTON     PTSUNNY   53  31  42 E15       29.85S

CENTRAL MONTANA


CITY           SKY/WX    TMP DP  RH WIND       PRES   REMARKS
HAVRE          MOSUNNY   56  27  32 N16       29.91S
LEWISTOWN      MOSUNNY   53  32  44 N10       29.91S
GREAT FALLS    MOSUNNY   56  21  25 NE13      29.90S
CUT BANK       PTSUNNY   53  22  29 N17       29.93R
HELENA         CLOUDY    56  27  32 NE17      29.84R
BUTTE          CLOUDY    49  27  42 E16G23    29.83S
BOZEMAN        CLOUDY    53  36  52 SE14G23   29.82R

WESTERN MONTANA


CITY           SKY/WX    TMP DP  RH WIND       PRES   REMARKS
MISSOULA       MOSUNNY   59  18  20 N15G24    29.82F
KALISPELL      NOT AVBL

NORTH DAKOTA


CITY           SKY/WX    TMP DP  RH WIND       PRES   REMARKS
WILLISTON      LGT RAIN  52  49  89 N16       29.73R
DICKINSON      LGT RAIN  54  52  93 NW22G30   29.65R
MINOT          CLOUDY    60  58  92 CALM      29.63R
BISMARCK       MOCLDY    65  58  78 E13       29.60S

SOUTHERN SASKATCHEWAN


CITY           SKY/WX    TMP DP  RH WIND       PRES   REMARKS
REGINA         CLOUDY    54  45  71 NW22G29   29.78R
MOOSE JAW      PTSUNNY   54  41  62 NW18G25   29.81R
ESTEVAN        LGT RAIN  52  50  93 NW21G29   29.71S FOG
SWIFT CURRENT  SUNNY     50  32  50 NW24G31   29.86R




USA.gov is the U.S. government's official web portal to all federal, state and local government web resources and services.